Flag for Germany Weather past 2 weeks in Bautzen, Saxony, Germany

Now
37 °F

Passing clouds.


Feels Like: 30 °F
Forecast: 29 / 36 °F
Wind: 9 mph from Southwest

Location: Goerlitz

Current Time: Jan 29, 2015 at 1:22:20 PM

Latest Report: Jan 29, 2015 at 1:00 PM


Visibility: 28 mi

Pressure: 29.32 "Hg

Humidity: 70%

Dew point: 28 °F

Location of BautzenLocation

Historic Weather in Bautzen — Graph

°F

Bautzen temperature yesterday

Maximum temperature yesterday: 38 °F (at 12:00 PM)
Minimum temperature yesterday: 34 °F (at 5:00 AM)
Average temperature yesterday: 36 °F

Past Weeks' High & Low Weather Summary

 TemperatureHumidityPressure
High45 °F (Jan 14, 1:00 PM)100% (Jan 22, 10:00 PM)30.34 "Hg (Jan 22, 10:00 PM)
Low28 °F (Jan 24, 6:00 PM)58% (Jan 14, 2:00 PM)29.35 "Hg (Jan 29, 3:00 AM)
Average34 °F89%29.99 "Hg
* Reported Jan 14 12:00 Noon — Jan 29 12:00 Noon, Bautzen, Weather by CustomWeather, © 2014

Note: Actual official high and low records may vary slightly from our data, if they occured in-between our weather recording intervals... More about our weather records

Advertising

Bautzen weather history for previous 24 hours

 ConditionsComfort  
Time TempWeatherWind HumidityBarometerVisibility
12:00 PM
Jan 29
36 °FPassing clouds.9 mph73%29.35 "Hg25 mi
11:00 AM35 °FScattered clouds.8 mph77%29.38 "Hg25 mi
10:00 AM33 °FPassing clouds.8 mph77%29.38 "Hg25 mi
9:00 AM32 °FScattered clouds.7 mph82%29.38 "Hg22 mi
8:00 AM32 °FScattered clouds.6 mph82%29.38 "Hg25 mi
7:00 AM33 °FPassing clouds.6 mph81%29.38 "Hg34 mi
6:00 AM34 °FPassing clouds.6 mph83%29.38 "Hg34 mi
5:00 AM35 °FOvercast.5 mph88%29.38 "Hg43 mi
4:00 AM33 °FOvercast.8 mph97%29.38 "Hg12 mi
3:00 AM34 °FOvercast.13 mph96%29.35 "Hg15 mi
2:00 AM33 °FOvercast.13 mph96%29.38 "Hg9 mi
1:00 AM32 °FLight snow. Low clouds.13 mph97%29.38 "Hg2 mi
12:00 AM33 °FLight snow. Overcast.14 mph90%29.41 "Hg4 mi
11:00 PM
Jan 28
36 °FOvercast.13 mph77%29.44 "Hg7 mi
10:00 PM36 °FOvercast.12 mph76%29.47 "Hg14 mi
9:00 PM36 °FOvercast.12 mph78%29.50 "Hg16 mi
8:00 PM36 °FOvercast.13 mph79%29.57 "Hg14 mi
6:00 PM36 °FOvercast.10 mph81%29.67 "Hg12 mi
5:00 PM36 °FOvercast.8 mph81%29.73 "Hg14 mi
4:00 PM37 °FOvercast.8 mph81%29.77 "Hg14 mi
3:00 PM38 °FOvercast.9 mph79%29.81 "Hg12 mi
2:00 PM38 °FOvercast.8 mph78%29.86 "Hg16 mi
1:00 PM37 °FOvercast.7 mph81%29.90 "Hg15 mi
Weather by CustomWeather, © 2014

See weather overviewHow to use our weather pages